Tracking 31027 objects as of 19-Jul-2025
HD Live streaming from Space Station
objects crossing your sky now

STARLINK-5293

Track STARLINK-5293 now!
10-day predictions
STARLINK-5293 is classified as:


NORAD ID: 55295
Int'l Code: 2023-010AC
Perigee: 576.8 km
Apogee: 581.6 km
Inclination: 70.0 °
Period: 96.1 minutes
Semi major axis: 6950 km
RCS: Unknown
Launch date: January 19, 2023
Source: United States (US)
Launch site: AIR FORCE WESTERN TEST RANGE (AFWTR)
Your satellite tracking list
FENGYUN 1C DEB
Track 1 satellite(s)




NASA's NSSDC Master Catalog

Two Line Element Set (TLE):
1 55295U 23010AC  25199.50249038  .00000513  00000-0  50784-4 0  9996
2 55295  69.9995 275.0583 0003486 269.6413  90.4346 14.98330983137709
Source of the keplerian elements: AFSPC